TIME,DELAY(SENSOR),PRES,T(CTD),SAL,OXYGEN,RAWTEMP,T(OPTODE),TCPHASE,FLUOR,BETA(BETA700),BETA(BETA412),BETA(BETA440),CDOM,C(CSC),ED(ED412.40),ED(ED444.00),ED(ED489.70),ED(ED554.30),LU(LU411.80),LU(LU443.40),LU(LU489.60),LU(LU554.10),COMP,TILTX,TILTX(TILTY),CHECK
1372456224,5812,496.9700012207031000,6.3678998947143555,34.1413002014160160,65.9864730834961000,607.4622192382812000,6.3429431915283200,50.7292594909668000,51,102,90,79,77,15459,2147750308,2147427684,2148009590,2147874614,2147631094,2147076946,2148248329,2147195584,443,4,13,18976
1372456351,5804,486.9200134277344000,6.4289999008178710,34.1339988708496100,69.6883697509765600,605.4047851562500000,6.4095339775085450,50.2353782653808600,52,102,86,79,78,15459,2147749732,2147427126,2148010404,2147871369,2147630116,2147073947,2148240356,2147202724,2656,4,13,62160
1372456502,5805,475.7799987792969000,6.5644001960754395,34.1245994567871100,74.5175094604492200,601.1693115234375000,6.5464901924133300,49.5820083618164060,52,105,85,81,78,15460,2147746669,2147427885,2148010834,2147871972,2147628050,2147076041,2148246893,2147200630,1963,4,13,13130
1372456644,5810,464.2000122070312500,6.7147998809814450,34.1132011413574200,81.2164230346679700,596.4188842773438000,6.6998858451843260,48.7160186767578100,52,103,86,80,79,15460,2147747364,2147427675,2148007040,2147873444,2147627501,2147075291,2148249124,2147198902,564,4,13,61139
1372456759,5809,453.7099914550781000,6.8934998512268070,34.0998992919921900,88.6784515380859400,591.0283813476562000,6.8737010955810550,47.7836799621582000,51,105,88,79,77,15461,2147745581,2147423113,2148010532,2147873865,2147629284,2147080530,2148244672,2147198189,3292,3,13,65248
1372456888,5808,442.0899963378906000,7.0742001533508300,34.0880012512207000,99.1669464111328100,585.4036865234375000,7.0547752380371090,46.5554084777832000,51,102,85,79,77,15460,2147744137,2147427291,2148008365,2147870052,2147623524,2147073700,2148239945,2147198555,2695,4,13,37978
1372457003,5804,431.7000122070312500,7.4159998893737790,34.0775985717773440,111.8787002563476600,574.1068115234375000,7.4175868034362790,45.0719299316406250,50,104,86,80,75,15460,2147743149,2147424457,2148006336,2147873481,2147623213,2147075958,2148241334,2147195931,2326,3,13,14741
1372457130,5808,420.4400024414062500,7.6690001487731930,34.0834999084472660,119.2398986816406200,566.6311035156250000,7.6570529937744140,44.2342681884765600,50,104,88,80,75,15458,2147744521,2147423405,2148004937,2147874651,2147621467,2147083090,2148238720,2147202057,1170,3,13,13957
1372457248,5809,409.7300109863281000,7.8463001251220700,34.0906982421875000,123.4168014526367200,560.9843139648438000,7.8376121520996090,43.7449188232421900,51,104,87,79,75,15458,2147744896,2147423579,2148004105,2147870784,2147619456,2147083968,2148237485,2147199762,857,4,13,27878
1372457375,5807,398.5000000000000000,8.0760002136230470,34.0913009643554700,130.6790008544922000,553.7744750976562000,8.0677547454833980,42.9559516906738300,51,106,84,80,75,15457,2147741824,2147423396,2148006729,2147874285,2147621010,2147088411,2148235593,2147200320,840,4,13,31075
1372457504,5805,387.4700012207031000,8.2650995254516600,34.0929985046386700,135.7577056884765600,547.8986816406250000,8.2549962997436520,42.4040489196777340,50,106,86,80,75,15456,2147739501,2147427739,2148005412,2147868653,2147620214,2147083364,2148235117,2147201298,553,4,13,28407
1372457643,5809,376.2500000000000000,8.6808004379272460,34.0839004516601560,148.7760009765625000,534.9578247070312000,8.6663818359375000,41.0796089172363300,50,105,88,81,74,15455,2147738258,2147425115,2148007917,2147872228,2147620644,2147089801,2148234907,2147199890,3469,2,13,62269
1372457782,5806,365.5299987792969000,9.0823001861572270,34.0890007019043000,161.6302947998047000,522.9428100585938000,9.0471534729003900,39.8568916320800800,50,107,90,81,72,15453,2147738148,2147428489,2148008731,2147874130,2147616365,2147086930,2148231488,2147202276,2575,4,13,56973
1372457911,5809,353.8099975585937500,9.5853004455566400,34.0992012023925800,179.3083038330078000,505.4884948730469000,9.5983753204345700,38.2708396911621100,49,105,87,80,70,15454,2147737234,2147426267,2148008411,2147871396,2147616182,2147097444,2148232594,2147203794,1978,3,13,53397
1372458014,5808,342.8999938964844000,9.9109001159667970,34.1161003112793000,192.3059997558593800,495.8637084960937500,9.9014005661010740,37.2398490905761700,49,107,88,79,71,15456,2147735314,2147427785,2148013833,2147872411,2147613586,2147095305,2148231707,2147201426,1127,3,13,8335
1372458117,5811,331.6600036621094000,10.1462001800537110,34.1198997497558600,194.0001983642578000,488.2466125488281000,10.1407699584960940,37.0021896362304700,49,105,87,81,70,15456,2147734208,2147429321,2148017938,2147872374,2147610633,2147102902,2148229120,2147203382,44,3,13,57157
1372458240,5809,320.2000122070312500,10.3973999023437500,34.1416015625000000,207.9313964843750000,480.2529907226562500,10.3915500640869140,36.0128211975097660,49,103,85,78,69,15458,2147732726,2147431140,2148025956,2147870509,2147606509,2147103670,2148231360,2147203492,2455,3,13,61304
1372458391,5806,309.7699890136719000,10.7006998062133790,34.1566009521484400,212.9971923828125000,470.7608947753906000,10.6888103485107420,35.5607604980468750,48,108,87,79,69,15456,2147728274,2147432914,2148029440,2147872548,2147609060,2147105499,2148232064,2147200356,1040,3,13,53944
1372458552,5810,298.1400146484375000,11.1803998947143550,34.1744003295898440,213.1387939453125000,454.6975097656250000,11.1905899047851560,35.2897491455078100,48,107,87,80,68,15453,2147726720,2147434788,2148042121,2147869952,2147608292,2147110646,2148236544,2147209398,1250,3,13,41899
1372458679,5810,287.6300048828125000,11.5069999694824220,34.2066993713378900,224.7118988037109400,444.7513122558594000,11.5005302429199220,34.4865608215332000,47,105,85,79,67,15456,2147731840,2147438747,2148059821,2147872932,2147605924,2147120914,2148243245,2147203730,178,3,14,48439
1372458820,5807,276.2799987792969000,11.7111997604370120,34.1629981994628900,213.6952972412109400,437.5472106933594000,11.7246799468994140,34.9819297790527340,49,104,85,80,68,15451,2147730249,2147450550,2148086317,2147870564,2147602148,2147125970,2148251419,2147207926,2266,3,14,5711
1372458959,5810,265.8500061035156000,12.6560001373291020,34.1846008300781250,194.1174011230468800,408.9099121093750000,12.6130504608154300,35.6990318298339840,48,105,85,80,69,15448,2147727926,2147463643,2148119936,2147872804,2147600594,2147129645,2148267227,2147207469,1762,3,13,5679
1372459119,5808,254.0399932861328000,13.0781002044677730,34.2640991210937500,211.9165039062500000,394.0098876953125000,13.0737400054931640,34.3978118896484400,49,103,85,79,67,15449,2147730358,2147487122,2148177910,2147872832,2147596662,2147150765,2148287862,2147211657,430,3,14,16059
1372459227,5810,243.4799957275390600,13.8051996231079100,34.3518981933593750,227.8394012451172000,370.3005065917969000,13.8049001693725590,33.1689300537109400,48,102,84,81,67,15453,2147729508,2147514258,2148241234,2147870061,2147598061,2147171145,2148325385,2147219136,2908,2,13,18389
1372459342,5807,232.1699981689453000,14.1455001831054690,34.3731994628906250,229.1347045898437500,359.2119140625000000,14.1461296081542970,32.9358406066894500,49,107,87,79,66,15449,2147736493,2147556333,2148332626,2147874998,2147597412,2147199817,2148365659,2147220406,1967,3,14,53597
1372459460,5808,221.2500000000000000,14.5795001983642580,34.4113006591796900,225.9107055664062500,345.3547973632812500,14.5719804763793950,32.8984489440918000,48,104,85,80,67,15445,2147748525,2147621942,2148467072,2147872146,2147599232,2147242697,2148428699,2147224384,1022,3,13,44951
1372459587,5811,210.5599975585937500,15.0208997726440430,34.4434013366699200,225.7290954589843800,331.3245849609375000,15.0025796890258790,32.7019004821777340,49,105,86,80,65,15443,2147762651,2147696118,2148602285,2147873810,2147602742,2147294244,2148502070,2147227090,1057,3,14,49241
1372459728,5809,199.9700012207031200,15.9245004653930660,34.5499992370605500,221.2326965332031200,298.9018859863281000,15.9957895278930660,32.4685707092285160,49,105,86,81,66,15441,2147799003,2147839625,2148864310,2147876854,2147615963,2147381019,2148625600,2147239862,1055,2,13,45249
1372459783,5808,196.2500000000000000,16.2775001525878900,34.5881004333496100,221.1631011962890600,289.8125915527344000,16.2738494873046880,32.3423309326171900,49,104,88,80,66,15443,2147817472,2147902966,2148973796,2147874797,2147623552,2147423241,2148673115,2147246765,3521,2,14,13973
1372459850,5808,191.7700042724609400,16.4836006164550780,34.6091003417968750,220.6195983886718800,282.6247863769531000,16.4936504364013670,32.2685089111328100,50,105,87,79,65,15436,2147842971,2147980233,2149107602,2147874486,2147633225,2147469970,2148743012,2147252306,2683,2,15,46777
1372459905,5807,187.8500061035156200,16.6560993194580080,34.6300010681152340,220.1105957031250000,278.9945068359375000,16.6046295166015620,32.2440986633300800,50,108,87,79,66,15435,2147878153,2148069485,2149253613,2147876635,2147643492,2147528512,2148815396,2147256749,2785,3,15,8410
1372459960,5810,184.0200042724609400,16.8857002258300780,34.6605987548828100,219.6071929931640600,270.3479919433594000,16.8689098358154300,32.1484794616699200,50,109,86,81,64,15432,2147909942,2148159753,2149401353,2147875547,2147657408,2147585133,2148885979,2147261339,96,3,14,16292
1372460036,5809,179.3000030517578000,17.2490997314453120,34.7088012695312500,219.5962066650390600,260.4854125976562500,17.1702499389648440,32.0097999572753900,52,110,88,78,64,15431,2147963401,2148272182,2149574290,2147875931,2147674185,2147651355,2148978048,2147267648,1109,2,15,7458
1372460115,5808,175.1799926757812500,17.4661998748779300,34.7398986816406250,219.8748016357422000,252.8251953125000000,17.4042491912841800,31.8879508972167970,52,107,86,80,64,15434,2148022857,2148406738,2149786395,2147880374,2147697581,2147740306,2149082112,2147277668,1352,3,15,58356
1372460194,5807,171.2700042724609400,17.7401008605957030,34.7762985229492200,219.4710998535156200,241.7106933593750000,17.7437095642089840,31.7543106079101560,56,110,86,79,63,15418,2148097664,2148560768,2150028617,2147880036,2147732251,2147832822,2149202304,2147286381,1726,2,15,33381
1372460273,5805,167.9299926757812500,18.3020992279052730,34.8465995788574200,219.0657043457031200,225.1486053466797000,18.2494907379150400,31.5470008850097660,60,111,87,81,64,15418,2147819894,2147714788,2148442093,2147872740,2147618587,2147333037,2148411766,2147227629,1727,3,14,47169
1372460403,5806,164.1300048828125000,18.9768009185791000,34.9390983581543000,219.5679016113281200,203.6654968261718800,18.9056091308593750,31.2265892028808600,76,120,87,83,62,15410,2148275062,2148896621,2150544484,2147884672,2147802514,2148045028,2149442797,2147304576,2961,3,15,59955
1372460530,5811,159.5899963378906200,19.3131008148193360,34.9864997863769500,220.4925994873047000,191.0106964111328000,19.2922306060791000,31.0071296691894530,81,114,87,82,61,15404,2148455332,2149226093,2151045504,2147886848,2147877120,2148222957,2149658605,2147321700,3384,2,15,8452
1372460621,5809,156.1000061035156200,19.6194992065429700,35.0243988037109400,220.2530059814453000,181.2453002929687500,19.5906791687011720,30.8880290985107420,91,124,88,82,62,15390,2148622537,2149533037,2151510720,2147893741,2147947904,2148391570,2149867766,2147338496,2964,2,15,13414
1372460733,5812,151.8099975585937500,20.1238994598388670,35.0996017456054700,221.1210021972656200,164.2655944824218800,20.1099090576171880,30.6165008544921880,100,122,91,81,61,15377,2148886784,2149992210,2152170925,2147895945,2148061741,2148620388,2150143771,2147357522,2181,2,15,2899
1372460836,5807,147.7299957275390600,20.3787002563476560,35.1416015625000000,223.9841003417968800,156.0270996093750000,20.3620090484619140,30.3618507385253900,113,123,89,82,61,15357,2149244013,2150597915,2153046445,2147904731,2148206710,2148916041,2150479250,2147388068,979,2,15,57785
1372460951,5810,144.0899963378906200,20.4962997436523440,35.1647987365722660,225.3847961425781200,151.6192932128906200,20.4969291687011720,30.2338294982910160,112,125,86,82,62,15357,2149587099,2151129417,2153723766,2147911433,2148354486,2149161188,2150737435,2147411401,3416,2,15,57014
1372461080,5808,139.7200012207031200,20.8733005523681640,35.2178993225097660,228.3952941894531200,139.6322937011718800,20.8640804290771500,29.9277992248535160,115,125,91,83,61,15344,2150232658,2152138432,2155064274,2147925010,2148639881,2149626084,2151236699,2147453915,2616,1,15,36282
1372461171,5810,135.3999938964843800,21.0018005371093750,35.2216987609863300,228.7480926513672000,133.9835052490234400,21.0372009277343750,29.8370494842529300,125,127,89,82,60,15330,2148545563,2148804187,2149797138,2147884955,2147926738,2147882368,2148935926,2147279533,1816,1,15,21450
1372461250,5809,131.8099975585937500,21.0734996795654300,35.2240982055664060,230.1641998291015600,132.9683074951172000,21.0683307647705080,29.7551193237304700,138,130,89,84,59,15305,2148928795,2149389741,2150560182,2147893568,2148089728,2148200082,2149309933,2147307977,599,2,15,58374
1372461331,5812,127.5000000000000000,21.1874008178710940,35.2290992736816400,230.9421997070312500,128.9902038574218800,21.1902999877929700,29.6658401489257800,145,132,89,84,60,15301,2152838912,2156039305,2160105298,2147993874,2149657161,2151215040,2153049380,2147613476,434,2,15,51832
1372461410,5811,123.4499969482421900,21.6872997283935550,35.3008003234863300,231.6994018554687500,113.8721008300781200,21.6542491912841800,29.4344692230224600,160,130,92,83,61,15282,2153851977,2157506669,2161830006,2148023158,2150026313,2151740982,2153617718,2147676214,258,1,15,7558
1372461501,5810,119.9700012207031200,21.8789005279541000,35.3251991271972660,234.7481994628906200,107.0617980957031200,21.8634700775146500,29.2028007507324220,162,125,86,83,59,15280,2155073874,2159359478,2164093266,2148059556,2150527341,2152465517,2154408274,2147747757,2858,1,16,32790
1372461616,5809,115.9899978637695300,22.0356998443603500,35.3390007019043000,237.2463073730468800,101.8506011962890600,22.0236492156982420,29.0198001861572270,99,117,87,83,60,15328,2156636562,2161515181,2166584146,2148113892,2151297846,2153611072,2155578057,2147855963,2399,2,15,50011
1372461734,5806,111.9100036621093800,22.1879005432128900,35.3507003784179700,238.4803009033203000,96.9266433715820300,22.1750907897949220,28.9003791809082030,96,118,90,83,58,15329,2158487140,2163991414,2169340233,2148185654,2152276818,2155035739,2156961270,2147981293,2319,1,15,36766
1372461849,5803,107.9000015258789000,22.2229995727539060,35.3548011779785160,239.6260070800781200,95.6644363403320300,22.2139205932617200,28.8318595886230470,93,118,89,82,59,15325,2160916260,2167213915,2172949750,2148282048,2153541293,2156863387,2158728704,2148139364,1640,2,16,43427
1372461952,5809,104.0299987792968800,22.2630004882812500,35.3543014526367200,240.0354003906250000,94.2612228393554700,22.2570991516113280,28.7955608367919920,92,117,87,82,58,15314,2163721709,2170846957,2176878939,2148413412,2155047332,2158966546,2160704923,2148328000,2110,1,16,59989
1372462057,5810,99.0400009155273400,22.3365001678466800,35.3564987182617200,241.0735931396484400,91.9231033325195300,22.3290596008300780,28.7189292907714840,87,120,92,83,60,15320,2169000923,2177602861,2184161088,2148679835,2157776804,2162719497,2164145033,2148662893,1919,1,15,44053
1372462112,5810,95.9300003051757800,22.3355998992919920,35.3581008911132800,241.6571044921875000,91.6741867065429700,22.3367195129394530,28.6893005371093750,88,121,91,82,57,15318,2172881179,2182433234,2189141842,2148848731,2159936448,2165665417,2166828224,2148910601,1668,1,15,36899
1372462167,5809,92.9100036621093800,22.3960990905761720,35.3604011535644500,241.7960968017578000,89.6699371337890600,22.3984203338623050,28.6577091217041000,87,120,89,82,58,15324,2176849289,2186977197,2193622217,2149107090,2162197732,2168534006,2169310189,2149170697,1315,2,16,49332
1372462222,5809,90.0999984741211000,22.4461002349853500,35.3674011230468750,242.5626983642578000,88.0786895751953100,22.4474201202392580,28.6032791137695300,82,120,90,84,58,15325,2179183789,2189306596,2195390299,2149246957,2163660909,2170216576,2170541714,2149292516,1089,1,16,43571
1372462277,5810,87.5899963378906200,22.5358009338378900,35.3713989257812500,243.0690002441406200,85.3663635253906200,22.5309600830078120,28.5463199615478500,80,120,90,84,58,15322,2183157028,2193813979,2199683099,2149524937,2165978358,2172983451,2172727268,2149522971,605,1,16,6858
1372462335,5811,85.3000030517578100,22.5641994476318360,35.3757019042968750,243.8861999511718800,84.2037963867187500,22.5667800903320300,28.4952106475830080,79,121,88,83,58,15315,2185748361,2196243794,2201276214,2149681645,2167964854,2175178176,2174262683,2149690185,169,1,16,27248
1372462390,5808,83.3499984741211000,22.6567993164062500,35.3722000122070300,244.5731048583984400,81.5413284301757800,22.6488208770751950,28.4313697814941400,76,120,89,83,56,15321,2169735369,2173799917,2174575588,2148711104,2159824512,2162944877,2161827163,2148517485,3385,2,16,13237
1372462445,5806,81.7300033569336000,22.7395000457763670,35.3726005554199200,245.3905944824218800,78.9702224731445300,22.7280693054199220,28.3629207611084000,75,121,88,83,56,15314,2196309174,2208650112,2213545234,2150381787,2174309092,2182968100,2180564434,2150330660,3234,1,16,33595
1372462500,5810,80.2799987792968800,22.7686996459960940,35.3736991882324200,246.3708038330078000,77.7915267944336000,22.7644100189209000,28.3048706054687500,74,122,90,84,57,15305,2196347922,2207710692,2211451163,2150395309,2175053677,2183329773,2180233435,2150324425,2770,1,16,276
1372462579,5808,78.4499969482421900,22.8684005737304700,35.3641014099121100,247.4897003173828000,74.4084625244140600,22.8687496185302730,28.2136898040771500,72,120,90,83,59,15310,2180795584,2186271387,2186290980,2149272502,2168282870,2173413321,2170460772,2149311798,2237,1,16,55437
1372462672,5808,75.9499969482421900,23.0165004730224600,35.3599014282226560,249.2156066894531200,70.0655288696289000,23.0027503967285160,28.0845699310302730,70,121,88,84,56,15305,2215722029,2229123986,2231806665,2151707492,2188256018,2198933659,2192014875,2151514861,2178,1,16,11953
1372462727,5808,74.0400009155273400,22.9857997894287100,35.3233985900878900,249.6416015625000000,69.8880081176757800,23.0082302093505860,28.0641002655029300,68,120,91,83,58,15301,2222287268,2235396004,2237245531,2152228946,2193058550,2204238409,2195817472,2151913435,1576,1,16,8399
1372462782,5807,72.1200027465820300,23.0118999481201170,35.2641983032226560,249.4685058593750000,69.4156494140625000,23.0228099822998050,28.0655097961425780,63,122,90,85,59,15302,2212213613,2220843245,2220002029,2151427126,2188836242,2197856018,2189460269,2151271808,1208,2,16,42560
1372462849,5811,69.9199981689453100,23.2961006164550780,35.2611999511718750,248.8002014160156200,62.1505088806152340,23.2471809387207030,28.0043296813964840,65,123,93,84,56,15289,2222615067,2232274432,2231465060,2152468864,2195029970,2204988653,2194803565,2151896594,1444,2,16,45033
1372462916,5808,68.0299987792968800,23.3707008361816400,35.2361984252929700,249.8235931396484400,58.5217781066894500,23.3593292236328120,27.9151592254638670,65,122,91,86,57,15291,2231076333,2241690934,2240974198,2153448950,2200214528,2210877778,2199327442,2152469019,1692,2,16,51404
1372462997,5808,65.2300033569336000,23.5328006744384770,35.2338981628418000,249.7364959716797000,53.4877510070800800,23.5149993896484380,27.8566608428955080,60,123,93,85,56,15285,2175599232,2175917796,2173089170,2149086857,2166040749,2167515702,2162844662,2148700717,2106,1,16,9751
1372463052,5806,62.5299987792968750,23.6257991790771500,35.2411994934082000,250.2274017333984400,50.0770606994628900,23.6205406188964840,27.7933406829834000,61,122,93,85,58,15279,2180394038,2180583881,2177380489,2149541622,2169701952,2171274002,2165490395,2149005184,2304,1,16,60268
1372463107,5805,59.9000015258789060,24.0573005676269530,35.2885017395019500,249.9017028808593800,37.6260490417480500,24.0062904357910160,27.6540203094482420,62,127,91,85,56,15279,2191239963,2191816384,2188072621,2150610980,2178377846,2180889426,2172691931,2149803858,1549,1,16,35612
1372463162,5805,57.9399986267089840,24.1471004486084000,35.2709999084472660,251.1389007568359400,33.7493782043457000,24.1265506744384770,27.5537490844726560,62,122,93,85,57,15255,2284884681,2297699072,2297231030,2161326738,2241252233,2255744667,2232753042,2156663076,817,1,16,48969
1372463241,5809,56.6800003051757800,24.0765991210937500,35.2219009399414060,251.7519989013672000,33.0081291198730500,24.1495494842529300,27.5185794830322270,60,123,96,86,58,15278,2258642093,2266243821,2262495213,2157963172,2225236306,2235437275,2215399936,2154692324,2248,1,16,9130
1372463382,5812,54.3800010681152340,24.1923999786376950,35.1847000122070300,251.6755981445312500,31.7503604888916000,24.1885890960693360,27.5065193176269530,57,124,91,86,57,15283,2218383387,2218816384,2213223753,2153527469,2200832009,2204439405,2189352182,2151730532,163,1,15,39238
1372463437,5809,53.2500000000000000,24.3085994720459000,35.1847000122070300,251.8005981445312500,28.4689903259277340,24.2904701232910160,27.4610099792480470,57,129,91,86,59,15286,2324060891,2335057517,2331509101,2167392091,2277092150,2292054838,2257313179,2159787885,258,1,16,50370
1372463528,5810,51.5499992370605500,24.4944992065429700,35.1871986389160160,252.1875000000000000,22.4541492462158200,24.4773693084716800,27.3711204528808600,57,122,92,86,53,15285,2321649965,2329008137,2324009380,2168515035,2281116196,2293858761,2256978651,2160080667,953,1,16,33270
1372463583,5808,50.5299987792968750,24.5263996124267580,35.1915016174316400,252.5532073974609400,20.7540092468261720,24.5302391052246100,27.3350200653076170,56,124,91,85,59,15279,2328568429,2335534793,2330031113,2169426971,2287738697,2300446811,2261485120,2160788918,1160,1,16,41555
1372463676,5808,47.5099983215332000,24.8150005340576170,35.2103996276855500,251.9662017822265600,12.2367095947265620,24.7952995300292970,27.2558708190917970,57,123,92,84,58,15283,2349238473,2355122185,2349037906,2174997549,2306520164,2318040658,2273140928,2162789696,1071,1,16,61021
1372463731,5812,45.0600013732910160,25.2416000366210940,35.2666015625000000,249.3448028564453000,-0.8297591805458069,25.2027397155761720,27.2076892852783200,56,123,92,85,56,15265,2355458048,2359973101,2353039798,2178194560,2315953380,2325382582,2277534930,2163778130,233,1,16,44518
1372463786,5810,43.2999992370605500,25.4813995361328120,35.2806015014648440,247.6522064208984400,-6.6536130905151370,25.3846607208251950,27.2088699340820300,56,123,92,86,59,15262,2368068489,2373356150,2366663606,2182366537,2326714569,2334978715,2284003026,2165156105,3405,1,16,36385
1372463841,5811,42.2599983215332000,25.5547008514404300,35.2844009399414060,246.4167938232422000,-11.0676498413085940,25.5226802825927730,27.2079792022705080,58,121,93,85,58,15269,2370070107,2374959826,2368898194,2184760521,2327725705,2335240438,2284030665,2165528987,50,2,16,37298
1372463981,5809,39.9599990844726560,25.8460006713867200,35.3088989257812500,243.6587982177734400,-19.8709506988525400,25.7983093261718750,27.2199993133544920,57,122,91,83,56,15251,2388457298,2392935826,2386786084,2191283410,2351915675,2358119478,2299428086,2168586532,1641,1,16,5765
1372464036,5806,38.1800003051757800,25.9521007537841800,35.3214988708496100,242.4089050292968800,-24.1061897277832030,25.9310894012451170,27.2226905822753900,56,122,91,84,55,15259,2366541229,2368685869,2361035949,2189278793,2339021339,2340765961,2284837933,2167042450,2137,1,16,9745
1372464103,5806,36.1100006103515600,26.2828006744384770,35.3446006774902340,238.5182037353515600,-34.6469993591308600,26.2620697021484380,27.2654800415039060,55,121,92,85,55,15279,2412247478,2417575835,2411981604,2205066002,2386334985,2389084544,2320270820,2173565202,2351,1,16,738